Time,TemperatureF,DewpointF,PressureIn,WindDirection,WindDirectionDegrees,WindSpeedMPH,WindSpeedGustMPH,Humidity,HourlyPrecipIn,Conditions,Clouds,dailyrainin,SoftwareType,DateUTC
2013-10-23 00:01:00,47.4,41.9,29.68,SSE,168,0.0,5.0,81,0.00,,---,0.00,VWS V14.00,2013-10-23 04:01:00,
2013-10-23 00:03:00,47.3,41.8,29.68,SSE,168,0.0,5.0,81,0.00,,---,0.00,VWS V14.00,2013-10-23 04:03:00,
2013-10-23 00:04:00,47.3,41.8,29.68,South,169,0.0,5.0,81,0.00,,---,0.00,VWS V14.00,2013-10-23 04:04:00,
2013-10-23 00:08:00,47.2,41.7,29.67,South,169,0.0,2.0,81,0.00,,---,0.00,VWS V14.00,2013-10-23 04:08:00,
2013-10-23 00:13:00,47.1,41.6,29.67,SSE,168,2.0,3.0,81,0.00,,---,0.00,VWS V14.00,2013-10-23 04:13:00,
2013-10-23 00:18:00,46.9,41.4,29.66,South,169,0.0,3.0,81,0.00,,---,0.00,VWS V14.00,2013-10-23 04:18:00,
2013-10-23 00:23:00,47.0,41.8,29.66,SSE,168,0.0,3.0,82,0.00,,---,0.00,VWS V14.00,2013-10-23 04:23:00,
2013-10-23 00:29:00,47.1,41.9,29.66,SSE,168,2.0,3.0,82,0.00,,---,0.00,VWS V14.00,2013-10-23 04:29:00,
2013-10-23 00:34:00,46.9,41.7,29.66,SSE,168,0.0,4.0,82,0.00,,---,0.00,VWS V14.00,2013-10-23 04:34:00,
2013-10-23 00:39:00,46.9,41.4,29.66,South,169,0.0,0.0,81,0.00,,---,0.00,VWS V14.00,2013-10-23 04:39:00,
2013-10-23 00:44:00,46.8,41.6,29.66,SSE,168,0.0,0.0,82,0.00,,---,0.00,VWS V14.00,2013-10-23 04:44:00,
2013-10-23 00:49:00,46.9,41.7,29.66,South,171,0.0,4.0,82,0.00,,---,0.00,VWS V14.00,2013-10-23 04:49:00,
2013-10-23 00:54:00,47.0,41.5,29.65,South,171,1.0,4.0,81,0.00,,---,0.00,VWS V14.00,2013-10-23 04:54:00,
2013-10-23 00:59:00,47.1,41.6,29.65,South,173,4.0,5.0,81,0.00,,---,0.00,VWS V14.00,2013-10-23 04:59:00,
2013-10-23 01:04:00,47.2,41.7,29.65,South,173,0.0,5.0,81,0.00,,---,0.00,VWS V14.00,2013-10-23 05:04:00,
2013-10-23 01:09:00,47.4,41.9,29.64,South,173,0.0,3.0,81,0.00,,---,0.00,VWS V14.00,2013-10-23 05:09:00,
2013-10-23 01:14:00,47.4,41.9,29.65,South,173,3.0,4.0,81,0.00,,---,0.00,VWS V14.00,2013-10-23 05:14:00,
2013-10-23 01:19:00,47.5,42.0,29.64,South,175,2.0,4.0,81,0.00,,---,0.00,VWS V14.00,2013-10-23 05:19:00,
2013-10-23 01:24:00,47.5,41.7,29.64,South,175,0.0,5.0,80,0.00,,---,0.00,VWS V14.00,2013-10-23 05:24:00,
2013-10-23 01:29:00,47.6,42.1,29.64,South,177,5.0,5.0,81,0.00,,---,0.00,VWS V14.00,2013-10-23 05:29:00,
2013-10-23 01:34:00,47.6,41.8,29.64,South,183,0.0,6.0,80,0.00,,---,0.00,VWS V14.00,2013-10-23 05:34:00,
2013-10-23 01:39:00,47.6,42.1,29.64,South,187,0.0,5.0,81,0.00,,---,0.00,VWS V14.00,2013-10-23 05:39:00,
2013-10-23 01:44:00,47.7,42.2,29.64,South,188,0.0,5.0,81,0.00,,---,0.00,VWS V14.00,2013-10-23 05:44:00,
2013-10-23 01:49:00,47.6,42.1,29.64,South,188,3.0,5.0,81,0.00,,---,0.00,VWS V14.00,2013-10-23 05:49:00,
2013-10-23 01:54:00,47.5,42.0,29.64,SSW,192,5.0,6.0,81,0.00,,---,0.00,VWS V14.00,2013-10-23 05:54:00,
2013-10-23 01:59:00,47.4,41.9,29.63,South,191,0.0,6.0,81,0.00,,---,0.00,VWS V14.00,2013-10-23 05:59:00,
2013-10-23 02:05:00,47.2,42.0,29.64,SSW,198,0.0,7.0,82,0.00,,---,0.00,VWS V14.00,2013-10-23 06:05:00,
2013-10-23 02:10:00,47.1,41.9,29.64,SSW,205,3.0,4.0,82,0.00,,---,0.00,VWS V14.00,2013-10-23 06:10:00,
2013-10-23 02:15:00,47.0,42.1,29.64,SSW,199,3.0,6.0,83,0.00,,---,0.00,VWS V14.00,2013-10-23 06:15:00,
2013-10-23 02:20:00,46.9,42.0,29.64,SSW,209,0.0,6.0,83,0.00,,---,0.00,VWS V14.00,2013-10-23 06:20:00,
2013-10-23 02:25:00,47.0,42.4,29.64,SSW,193,0.0,10.0,84,0.00,,---,0.00,VWS V14.00,2013-10-23 06:25:00,
2013-10-23 02:30:00,47.0,42.4,29.64,SSW,195,0.0,10.0,84,0.00,,---,0.00,VWS V14.00,2013-10-23 06:30:00,
2013-10-23 02:35:00,46.9,42.3,29.64,SSW,195,0.0,10.0,84,0.00,,---,0.00,VWS V14.00,2013-10-23 06:35:00,
2013-10-23 02:40:00,46.9,42.3,29.64,SSW,196,4.0,4.0,84,0.00,,---,0.00,VWS V14.00,2013-10-23 06:40:00,
2013-10-23 02:45:00,46.8,42.2,29.64,WSW,248,0.0,12.0,84,0.00,,---,0.00,VWS V14.00,2013-10-23 06:45:00,
2013-10-23 02:50:00,46.9,42.3,29.64,SW,221,1.0,12.0,84,0.00,,---,0.00,VWS V14.00,2013-10-23 06:50:00,
2013-10-23 02:55:00,46.9,42.3,29.63,SW,219,2.0,12.0,84,0.00,,---,0.00,VWS V14.00,2013-10-23 06:55:00,
2013-10-23 03:00:00,46.9,42.3,29.64,SSW,206,0.0,12.0,84,0.00,,---,0.00,VWS V14.00,2013-10-23 07:00:00,
2013-10-23 03:05:00,46.8,42.2,29.64,SSW,213,3.0,16.0,84,0.00,,---,0.00,VWS V14.00,2013-10-23 07:05:00,
2013-10-23 03:10:00,46.7,41.8,29.64,SSW,207,0.0,12.0,83,0.00,,---,0.00,VWS V14.00,2013-10-23 07:10:00,
2013-10-23 03:15:00,46.7,41.8,29.64,South,171,8.0,12.0,83,0.00,,---,0.00,VWS V14.00,2013-10-23 07:15:00,
2013-10-23 03:20:00,46.5,41.9,29.64,SSE,165,1.0,12.0,84,0.00,,---,0.00,VWS V14.00,2013-10-23 07:20:00,
2013-10-23 03:25:00,46.2,41.6,29.64,SSW,202,5.0,12.0,84,0.00,,---,0.00,VWS V14.00,2013-10-23 07:25:00,
2013-10-23 03:31:00,46.0,41.8,29.64,SSW,200,3.0,12.0,85,0.00,,---,0.00,VWS V14.00,2013-10-23 07:31:00,
2013-10-23 03:36:00,45.8,41.5,29.64,SSW,202,0.0,12.0,85,0.00,,---,0.00,VWS V14.00,2013-10-23 07:36:00,
2013-10-23 03:41:00,45.7,41.5,29.65,West,279,4.0,6.0,85,0.00,,---,0.00,VWS V14.00,2013-10-23 07:41:00,
2013-10-23 03:46:00,45.4,41.2,29.65,WNW,290,18.0,18.0,85,0.00,,---,0.00,VWS V14.00,2013-10-23 07:46:00,
2013-10-23 03:51:00,44.9,40.7,29.66,WNW,291,6.0,18.0,85,0.00,,---,0.00,VWS V14.00,2013-10-23 07:51:00,
2013-10-23 03:56:00,44.2,40.0,29.66,West,271,3.0,18.0,85,0.00,,---,0.00,VWS V14.00,2013-10-23 07:56:00,
2013-10-23 04:01:00,43.7,39.8,29.67,NW,311,12.0,18.0,86,0.00,,---,0.00,VWS V14.00,2013-10-23 08:01:00,
2013-10-23 04:06:00,43.0,38.8,29.68,WNW,303,10.0,21.0,85,0.00,,---,0.00,VWS V14.00,2013-10-23 08:06:00,
2013-10-23 04:11:00,42.6,38.4,29.68,WNW,287,5.0,16.0,85,0.00,,---,0.00,VWS V14.00,2013-10-23 08:11:00,
2013-10-23 04:16:00,42.2,38.0,29.68,NW,319,4.0,18.0,85,0.00,,---,0.00,VWS V14.00,2013-10-23 08:16:00,
2013-10-23 04:21:00,41.8,37.6,29.69,NW,319,6.0,18.0,85,0.00,,---,0.00,VWS V14.00,2013-10-23 08:21:00,
2013-10-23 04:26:00,41.5,37.3,29.69,NNW,331,5.0,18.0,85,0.00,,---,0.00,VWS V14.00,2013-10-23 08:26:00,
2013-10-23 04:31:00,41.0,36.8,29.70,NW,304,3.0,18.0,85,0.00,,---,0.00,VWS V14.00,2013-10-23 08:31:00,
2013-10-23 04:36:00,40.7,36.5,29.70,NW,323,9.0,18.0,85,0.00,,---,0.00,VWS V14.00,2013-10-23 08:36:00,
2013-10-23 04:41:00,40.5,36.3,29.71,NW,314,8.0,16.0,85,0.00,,---,0.00,VWS V14.00,2013-10-23 08:41:00,
2013-10-23 04:46:00,40.2,36.1,29.72,NW,318,5.0,16.0,85,0.00,,---,0.00,VWS V14.00,2013-10-23 08:46:00,
2013-10-23 04:51:00,40.0,35.9,29.72,NNW,331,11.0,16.0,85,0.00,,---,0.00,VWS V14.00,2013-10-23 08:51:00,
2013-10-23 04:56:00,39.9,35.8,29.72,NNW,341,11.0,16.0,85,0.00,,---,0.00,VWS V14.00,2013-10-23 08:56:00,
2013-10-23 05:01:00,39.8,35.7,29.72,NW,315,8.0,16.0,85,0.00,,---,0.00,VWS V14.00,2013-10-23 09:01:00,
2013-10-23 05:06:00,39.5,35.4,29.73,NW,307,6.0,16.0,85,0.00,,---,0.00,VWS V14.00,2013-10-23 09:06:00,
2013-10-23 05:11:00,39.3,35.2,29.74,NW,313,6.0,13.0,85,0.00,,---,0.00,VWS V14.00,2013-10-23 09:11:00,
2013-10-23 05:16:00,39.1,35.0,29.74,NW,317,7.0,15.0,85,0.00,,---,0.00,VWS V14.00,2013-10-23 09:16:00,
2013-10-23 05:22:00,38.9,34.8,29.75,West,277,7.0,15.0,85,0.00,,---,0.00,VWS V14.00,2013-10-23 09:22:00,
2013-10-23 05:27:00,38.9,34.8,29.75,NW,310,4.0,15.0,85,0.00,,---,0.00,VWS V14.00,2013-10-23 09:27:00,
2013-10-23 05:32:00,38.8,34.7,29.76,North,355,10.0,17.0,85,0.00,,---,0.00,VWS V14.00,2013-10-23 09:32:00,
2013-10-23 05:37:00,38.7,34.6,29.76,NNW,338,6.0,17.0,85,0.00,,---,0.00,VWS V14.00,2013-10-23 09:37:00,
2013-10-23 05:42:00,38.6,34.5,29.77,WNW,289,9.0,15.0,85,0.00,,---,0.00,VWS V14.00,2013-10-23 09:42:00,
2013-10-23 05:47:00,38.6,34.5,29.77,WNW,293,4.0,15.0,85,0.00,,---,0.00,VWS V14.00,2013-10-23 09:47:00,
2013-10-23 05:52:00,38.5,34.4,29.77,NNW,339,9.0,15.0,85,0.00,,---,0.00,VWS V14.00,2013-10-23 09:52:00,
2013-10-23 05:57:00,38.4,34.3,29.78,WNW,303,8.0,15.0,85,0.00,,---,0.00,VWS V14.00,2013-10-23 09:57:00,
2013-10-23 06:02:00,38.5,34.4,29.78,NW,325,9.0,15.0,85,0.00,,---,0.00,VWS V14.00,2013-10-23 10:02:00,
2013-10-23 06:07:00,38.5,34.4,29.79,NW,307,3.0,15.0,85,0.00,,---,0.00,VWS V14.00,2013-10-23 10:07:00,
2013-10-23 06:12:00,38.5,34.4,29.79,West,273,10.0,18.0,85,0.00,,---,0.00,VWS V14.00,2013-10-23 10:12:00,
2013-10-23 06:17:00,38.5,34.4,29.79,WNW,294,10.0,18.0,85,0.00,,---,0.00,VWS V14.00,2013-10-23 10:17:00,
2013-10-23 06:22:00,38.5,34.4,29.80,WNW,294,6.0,18.0,85,0.00,,---,0.00,VWS V14.00,2013-10-23 10:22:00,
2013-10-23 06:27:00,38.5,34.4,29.80,NW,306,10.0,18.0,85,0.00,,---,0.00,VWS V14.00,2013-10-23 10:27:00,
2013-10-23 06:32:00,38.4,34.3,29.81,NNW,334,7.0,18.0,85,0.00,,---,0.00,VWS V14.00,2013-10-23 10:32:00,
2013-10-23 06:37:00,38.4,34.3,29.81,WNW,294,12.0,18.0,85,0.00,,---,0.00,VWS V14.00,2013-10-23 10:37:00,
2013-10-23 06:42:00,38.4,34.3,29.81,NW,326,10.0,14.0,85,0.00,,---,0.00,VWS V14.00,2013-10-23 10:42:00,
2013-10-23 06:47:00,38.3,34.2,29.82,NW,313,4.0,17.0,85,0.00,,---,0.00,VWS V14.00,2013-10-23 10:47:00,
2013-10-23 06:53:00,38.4,34.3,29.82,NW,310,7.0,17.0,85,0.00,,---,0.00,VWS V14.00,2013-10-23 10:53:00,
2013-10-23 06:58:00,38.4,34.3,29.82,NW,311,3.0,17.0,85,0.00,,---,0.00,VWS V14.00,2013-10-23 10:58:00,
2013-10-23 07:03:00,38.5,34.4,29.82,NW,307,5.0,17.0,85,0.00,,---,0.00,VWS V14.00,2013-10-23 11:03:00,
2013-10-23 07:08:00,38.4,34.3,29.83,West,275,5.0,5.0,85,0.00,,---,0.00,VWS V14.00,2013-10-23 11:08:00,
2013-10-23 07:13:00,38.5,34.4,29.83,NW,312,11.0,13.0,85,0.00,,---,0.00,VWS V14.00,2013-10-23 11:13:00,
2013-10-23 07:18:00,38.5,34.4,29.83,NW,315,3.0,13.0,85,0.00,,---,0.00,VWS V14.00,2013-10-23 11:18:00,
2013-10-23 07:23:00,38.7,34.6,29.84,NNW,330,9.0,13.0,85,0.00,,---,0.00,VWS V14.00,2013-10-23 11:23:00,
2013-10-23 07:28:00,38.7,34.6,29.84,WNW,300,5.0,13.0,85,0.00,,---,0.00,VWS V14.00,2013-10-23 11:28:00,
2013-10-23 07:33:00,38.8,34.4,29.84,WNW,290,6.0,17.0,84,0.00,,---,0.00,VWS V14.00,2013-10-23 11:33:00,
2013-10-23 07:38:00,38.9,34.5,29.84,NW,306,5.0,6.0,84,0.00,,---,0.00,VWS V14.00,2013-10-23 11:38:00,
2013-10-23 07:43:00,38.9,34.5,29.85,WNW,286,6.0,13.0,84,0.00,,---,0.00,VWS V14.00,2013-10-23 11:43:00,
2013-10-23 07:48:00,39.1,34.4,29.84,NW,317,3.0,13.0,83,0.00,,---,0.00,VWS V14.00,2013-10-23 11:48:00,
2013-10-23 07:53:00,39.1,34.4,29.85,NNW,347,6.0,13.0,83,0.00,,---,0.00,VWS V14.00,2013-10-23 11:53:00,
2013-10-23 07:58:00,39.2,34.5,29.85,NW,304,6.0,13.0,83,0.00,,---,0.00,VWS V14.00,2013-10-23 11:58:00,
2013-10-23 08:03:00,39.2,34.2,29.86,West,260,5.0,13.0,82,0.00,,---,0.00,VWS V14.00,2013-10-23 12:03:00,
2013-10-23 08:08:00,39.2,34.2,29.86,NW,320,3.0,8.0,82,0.00,,---,0.00,VWS V14.00,2013-10-23 12:08:00,
2013-10-23 08:13:00,39.3,34.3,29.87,NNW,345,5.0,8.0,82,0.00,,---,0.00,VWS V14.00,2013-10-23 12:13:00,
2013-10-23 08:18:00,39.3,34.3,29.87,WNW,294,4.0,10.0,82,0.00,,---,0.00,VWS V14.00,2013-10-23 12:18:00,
2013-10-23 08:23:00,39.3,34.3,29.87,WNW,288,0.0,10.0,82,0.00,,---,0.00,VWS V14.00,2013-10-23 12:23:00,
2013-10-23 08:28:00,39.4,34.4,29.87,NW,311,3.0,10.0,82,0.00,,---,0.00,VWS V14.00,2013-10-23 12:28:00,
2013-10-23 08:33:00,39.3,34.3,29.87,WNW,284,0.0,11.0,82,0.00,,---,0.00,VWS V14.00,2013-10-23 12:33:00,
2013-10-23 08:39:00,39.3,34.3,29.87,WNW,284,0.0,4.0,82,0.00,,---,0.00,VWS V14.00,2013-10-23 12:39:00,
2013-10-23 08:44:00,39.3,34.3,29.88,NW,310,4.0,7.0,82,0.00,,---,0.00,VWS V14.00,2013-10-23 12:44:00,
2013-10-23 08:49:00,39.3,34.0,29.88,NW,315,7.0,7.0,81,0.00,,---,0.00,VWS V14.00,2013-10-23 12:49:00,
2013-10-23 08:54:00,39.3,34.0,29.89,NW,323,0.0,7.0,81,0.00,,---,0.00,VWS V14.00,2013-10-23 12:54:00,
2013-10-23 08:59:00,39.3,34.0,29.89,WNW,291,3.0,10.0,81,0.00,,---,0.00,VWS V14.00,2013-10-23 12:59:00,
2013-10-23 09:04:00,39.3,34.0,29.89,West,271,3.0,10.0,81,0.00,,---,0.00,VWS V14.00,2013-10-23 13:04:00,
2013-10-23 09:09:00,39.2,33.9,29.89,West,273,3.0,11.0,81,0.00,,---,0.00,VWS V14.00,2013-10-23 13:09:00,
2013-10-23 09:14:00,39.1,33.5,29.89,West,272,10.0,13.0,80,0.00,,---,0.00,VWS V14.00,2013-10-23 13:14:00,
2013-10-23 09:19:00,39.0,33.4,29.90,West,265,5.0,13.0,80,0.00,,---,0.00,VWS V14.00,2013-10-23 13:19:00,
2013-10-23 09:24:00,39.0,33.4,29.90,NW,317,9.0,13.0,80,0.00,,---,0.00,VWS V14.00,2013-10-23 13:24:00,
2013-10-23 09:29:00,39.0,33.0,29.90,NW,315,5.0,13.0,79,0.00,,---,0.00,VWS V14.00,2013-10-23 13:29:00,
2013-10-23 09:34:00,39.2,33.2,29.90,WSW,245,4.0,13.0,79,0.00,,---,0.00,VWS V14.00,2013-10-23 13:34:00,
2013-10-23 09:39:00,39.3,33.3,29.89,West,271,5.0,7.0,79,0.00,,---,0.00,VWS V14.00,2013-10-23 13:39:00,
2013-10-23 09:44:00,39.4,33.4,29.90,NW,314,3.0,12.0,79,0.00,,---,0.00,VWS V14.00,2013-10-23 13:44:00,
2013-10-23 09:49:00,39.7,33.7,29.90,West,260,6.0,12.0,79,0.00,,---,0.00,VWS V14.00,2013-10-23 13:49:00,
2013-10-23 09:54:00,39.9,33.9,29.90,West,261,3.0,12.0,79,0.00,,---,0.00,VWS V14.00,2013-10-23 13:54:00,
2013-10-23 09:59:00,40.0,34.0,29.90,NW,321,3.0,12.0,79,0.00,,---,0.00,VWS V14.00,2013-10-23 13:59:00,
2013-10-23 10:04:00,40.1,33.8,29.90,WNW,303,0.0,12.0,78,0.00,,---,0.00,VWS V14.00,2013-10-23 14:04:00,
2013-10-23 10:09:00,40.4,34.4,29.90,NW,313,0.0,0.0,79,0.00,,---,0.00,VWS V14.00,2013-10-23 14:09:00,
2013-10-23 10:14:00,40.7,34.7,29.90,NNW,336,0.0,1.0,79,0.00,,---,0.00,VWS V14.00,2013-10-23 14:14:00,
2013-10-23 10:20:00,40.7,34.4,29.90,WNW,298,2.0,6.0,78,0.00,,---,0.00,VWS V14.00,2013-10-23 14:20:00,
2013-10-23 10:25:00,40.9,34.6,29.90,SSW,206,0.0,6.0,78,0.00,,---,0.00,VWS V14.00,2013-10-23 14:25:00,
2013-10-23 10:30:00,40.9,33.9,29.90,SW,221,1.0,10.0,76,0.00,,---,0.00,VWS V14.00,2013-10-23 14:30:00,
2013-10-23 10:35:00,40.8,33.8,29.91,West,280,3.0,10.0,76,0.00,,---,0.00,VWS V14.00,2013-10-23 14:35:00,
2013-10-23 10:40:00,41.0,34.0,29.91,WSW,253,4.0,10.0,76,0.00,,---,0.00,VWS V14.00,2013-10-23 14:40:00,
2013-10-23 10:45:00,41.1,34.1,29.91,SSE,152,0.0,10.0,76,0.00,,---,0.00,VWS V14.00,2013-10-23 14:45:00,
2013-10-23 10:50:00,41.2,34.2,29.91,WNW,303,5.0,10.0,76,0.00,,---,0.00,VWS V14.00,2013-10-23 14:50:00,
2013-10-23 10:55:00,41.1,33.8,29.92,WSW,243,3.0,12.0,75,0.00,,---,0.00,VWS V14.00,2013-10-23 14:55:00,
2013-10-23 11:00:00,41.1,33.8,29.92,WNW,284,1.0,12.0,75,0.00,,---,0.00,VWS V14.00,2013-10-23 15:00:00,
2013-10-23 11:05:00,41.3,34.0,29.92,West,259,8.0,12.0,75,0.00,,---,0.00,VWS V14.00,2013-10-23 15:05:00,
2013-10-23 11:10:00,41.6,34.3,29.92,SW,219,2.0,5.0,75,0.00,,---,0.00,VWS V14.00,2013-10-23 15:10:00,
2013-10-23 11:16:00,41.8,34.1,29.92,West,269,0.0,12.0,74,0.00,,---,0.00,VWS V14.00,2013-10-23 15:16:00,
2013-10-23 11:21:00,42.2,34.5,29.93,WNW,285,6.0,12.0,74,0.00,,---,0.00,VWS V14.00,2013-10-23 15:21:00,
2013-10-23 11:26:00,42.3,33.9,29.93,NW,306,3.0,12.0,72,0.00,,---,0.00,VWS V14.00,2013-10-23 15:26:00,
2013-10-23 11:31:00,42.5,34.1,29.93,North,349,6.0,12.0,72,0.00,,---,0.00,VWS V14.00,2013-10-23 15:31:00,
2013-10-23 11:36:00,43.1,34.3,29.92,West,276,4.0,12.0,71,0.00,,---,0.00,VWS V14.00,2013-10-23 15:36:00,
2013-10-23 11:41:00,43.2,34.5,29.93,NW,314,5.0,12.0,71,0.00,,---,0.00,VWS V14.00,2013-10-23 15:41:00,
2013-10-23 11:46:00,43.3,34.5,29.93,SSW,196,4.0,14.0,71,0.00,,---,0.00,VWS V14.00,2013-10-23 15:46:00,
2013-10-23 11:51:00,43.6,34.5,29.93,West,259,6.0,16.0,70,0.00,,---,0.00,VWS V14.00,2013-10-23 15:51:00,
2013-10-23 11:56:00,43.4,33.9,29.94,SSW,196,0.0,16.0,69,0.00,,---,0.00,VWS V14.00,2013-10-23 15:56:00,
2013-10-23 12:01:00,43.7,34.2,29.94,SSW,199,1.0,16.0,69,0.00,,---,0.00,VWS V14.00,2013-10-23 16:01:00,
2013-10-23 12:06:00,44.2,34.7,29.93,WSW,249,4.0,16.0,69,0.00,,---,0.00,VWS V14.00,2013-10-23 16:06:00,
2013-10-23 12:11:00,44.4,34.5,29.94,South,177,3.0,17.0,68,0.00,,---,0.00,VWS V14.00,2013-10-23 16:11:00,
2013-10-23 12:16:00,44.3,34.0,29.94,WNW,294,5.0,18.0,67,0.00,,---,0.00,VWS V14.00,2013-10-23 16:16:00,
2013-10-23 12:21:00,44.1,33.9,29.93,WNW,300,5.0,18.0,67,0.00,,---,0.00,VWS V14.00,2013-10-23 16:21:00,
2013-10-23 12:26:00,44.3,34.0,29.93,SSW,193,5.0,18.0,67,0.00,,---,0.00,VWS V14.00,2013-10-23 16:26:00,
2013-10-23 12:31:00,45.0,35.1,29.93,West,281,0.0,18.0,68,0.00,,---,0.00,VWS V14.00,2013-10-23 16:31:00,
2013-10-23 12:36:00,45.3,35.0,29.93,SSW,210,4.0,18.0,67,0.00,,---,0.00,VWS V14.00,2013-10-23 16:36:00,
2013-10-23 12:41:00,45.0,34.0,29.93,West,265,3.0,11.0,65,0.00,,---,0.00,VWS V14.00,2013-10-23 16:41:00,
2013-10-23 12:46:00,45.1,34.4,29.93,NW,326,4.0,13.0,66,0.00,,---,0.00,VWS V14.00,2013-10-23 16:46:00,
2013-10-23 12:52:00,45.4,34.3,29.93,West,266,5.0,13.0,65,0.00,,---,0.00,VWS V14.00,2013-10-23 16:52:00,
2013-10-23 12:57:00,45.7,34.6,29.93,WSW,243,0.0,13.0,65,0.00,,---,0.00,VWS V14.00,2013-10-23 16:57:00,
2013-10-23 13:02:00,45.9,34.4,29.93,West,265,9.0,13.0,64,0.00,,---,0.00,VWS V14.00,2013-10-23 17:02:00,
2013-10-23 13:07:00,45.8,34.3,29.93,WSW,256,5.0,13.0,64,0.00,,---,0.00,VWS V14.00,2013-10-23 17:07:00,
2013-10-23 13:12:00,45.7,34.2,29.93,SW,215,10.0,10.0,64,0.00,,---,0.00,VWS V14.00,2013-10-23 17:12:00,
2013-10-23 13:17:00,46.0,34.5,29.93,SSW,200,8.0,14.0,64,0.00,,---,0.00,VWS V14.00,2013-10-23 17:17:00,
2013-10-23 13:22:00,45.8,33.1,29.93,NW,315,0.0,16.0,61,0.00,,---,0.00,VWS V14.00,2013-10-23 17:22:00,
2013-10-23 13:27:00,46.0,33.7,29.92,West,272,6.0,16.0,62,0.00,,---,0.00,VWS V14.00,2013-10-23 17:27:00,
2013-10-23 13:32:00,46.0,33.7,29.92,WNW,294,3.0,16.0,62,0.00,,---,0.00,VWS V14.00,2013-10-23 17:32:00,
2013-10-23 13:37:00,46.2,33.5,29.92,WSW,256,4.0,16.0,61,0.00,,---,0.00,VWS V14.00,2013-10-23 17:37:00,
2013-10-23 13:42:00,46.6,33.5,29.92,WNW,303,5.0,14.0,60,0.00,,---,0.00,VWS V14.00,2013-10-23 17:42:00,
2013-10-23 13:47:00,46.5,32.1,29.92,NW,310,3.0,18.0,57,0.00,,---,0.00,VWS V14.00,2013-10-23 17:47:00,
2013-10-23 13:52:00,46.6,32.2,29.92,WNW,295,7.0,18.0,57,0.00,,---,0.00,VWS V14.00,2013-10-23 17:52:00,
2013-10-23 13:57:00,47.0,33.0,29.92,West,262,1.0,18.0,58,0.00,,---,0.00,VWS V14.00,2013-10-23 17:57:00,
2013-10-23 14:02:00,47.2,32.8,29.91,SSE,155,0.0,18.0,57,0.00,,---,0.00,VWS V14.00,2013-10-23 18:02:00,
2013-10-23 14:07:00,47.8,33.8,29.91,WNW,301,5.0,18.0,58,0.00,,---,0.00,VWS V14.00,2013-10-23 18:07:00,
2013-10-23 14:12:00,48.0,33.1,29.90,West,273,7.0,14.0,56,0.00,,---,0.00,VWS V14.00,2013-10-23 18:12:00,
2013-10-23 14:17:00,47.4,32.5,29.91,South,176,3.0,14.0,56,0.00,,---,0.00,VWS V14.00,2013-10-23 18:17:00,
2013-10-23 14:23:00,47.1,33.1,29.91,WSW,252,1.0,14.0,58,0.00,,---,0.00,VWS V14.00,2013-10-23 18:23:00,
2013-10-23 14:28:00,46.9,32.0,29.90,SW,234,2.0,14.0,56,0.00,,---,0.00,VWS V14.00,2013-10-23 18:28:00,
2013-10-23 14:33:00,46.8,33.2,29.90,NW,315,2.0,14.0,59,0.00,,---,0.00,VWS V14.00,2013-10-23 18:33:00,
2013-10-23 14:38:00,46.7,32.7,29.90,SSW,202,1.0,14.0,58,0.00,,---,0.00,VWS V14.00,2013-10-23 18:38:00,
2013-10-23 14:43:00,46.7,32.7,29.91,West,271,0.0,9.0,58,0.00,,---,0.00,VWS V14.00,2013-10-23 18:43:00,
2013-10-23 14:48:00,46.5,32.1,29.91,WNW,298,2.0,13.0,57,0.00,,---,0.00,VWS V14.00,2013-10-23 18:48:00,
2013-10-23 14:53:00,46.4,32.4,29.91,WSW,257,2.0,13.0,58,0.00,,---,0.00,VWS V14.00,2013-10-23 18:53:00,
2013-10-23 14:58:00,46.4,32.4,29.91,SW,232,1.0,13.0,58,0.00,,---,0.00,VWS V14.00,2013-10-23 18:58:00,
2013-10-23 15:03:00,46.6,33.0,29.91,WNW,286,4.0,13.0,59,0.00,,---,0.00,VWS V14.00,2013-10-23 19:03:00,
2013-10-23 15:08:00,46.7,32.7,29.91,SW,214,7.0,8.0,58,0.00,,---,0.00,VWS V14.00,2013-10-23 19:08:00,
2013-10-23 15:13:00,46.7,32.3,29.91,West,277,3.0,8.0,57,0.00,,---,0.00,VWS V14.00,2013-10-23 19:13:00,
2013-10-23 15:18:00,46.7,34.0,29.92,WSW,237,3.0,8.0,61,0.00,,---,0.00,VWS V14.00,2013-10-23 19:18:00,
2013-10-23 15:23:00,46.8,32.8,29.92,SSW,202,4.0,9.0,58,0.00,,---,0.00,VWS V14.00,2013-10-23 19:23:00,
2013-10-23 15:28:00,46.7,33.2,29.92,WSW,258,1.0,9.0,59,0.00,,---,0.00,VWS V14.00,2013-10-23 19:28:00,
2013-10-23 15:33:00,46.6,32.2,29.92,West,281,0.0,9.0,57,0.00,,---,0.00,VWS V14.00,2013-10-23 19:33:00,
2013-10-23 15:38:00,46.4,32.4,29.92,West,267,4.0,6.0,58,0.00,,---,0.00,VWS V14.00,2013-10-23 19:38:00,
2013-10-23 15:43:00,46.2,32.7,29.92,WNW,286,4.0,10.0,59,0.00,,---,0.00,VWS V14.00,2013-10-23 19:43:00,
2013-10-23 15:48:00,46.0,32.5,29.93,West,264,0.0,10.0,59,0.00,,---,0.00,VWS V14.00,2013-10-23 19:48:00,
2013-10-23 15:53:00,46.0,32.9,29.93,WSW,247,0.0,10.0,60,0.00,,---,0.00,VWS V14.00,2013-10-23 19:53:00,
2013-10-23 15:58:00,45.8,32.7,29.94,West,275,6.0,12.0,60,0.00,,---,0.00,VWS V14.00,2013-10-23 19:58:00,
2013-10-23 16:03:00,45.5,33.7,29.94,SW,220,2.0,12.0,63,0.00,,---,0.00,VWS V14.00,2013-10-23 20:03:00,
2013-10-23 16:09:00,45.3,33.5,29.94,West,280,5.0,7.0,63,0.00,,---,0.00,VWS V14.00,2013-10-23 20:09:00,
2013-10-23 16:14:00,45.1,33.7,29.95,WNW,288,4.0,17.0,64,0.00,,---,0.00,VWS V14.00,2013-10-23 20:14:00,
2013-10-23 16:19:00,45.2,33.8,29.95,SW,226,6.0,17.0,64,0.00,,---,0.00,VWS V14.00,2013-10-23 20:19:00,
2013-10-23 16:24:00,45.3,34.2,29.95,WSW,257,3.0,17.0,65,0.00,,---,0.00,VWS V14.00,2013-10-23 20:24:00,
2013-10-23 16:29:00,45.4,34.0,29.95,West,261,0.0,17.0,64,0.00,,---,0.00,VWS V14.00,2013-10-23 20:29:00,
2013-10-23 16:34:00,45.4,34.3,29.95,WNW,294,2.0,17.0,65,0.00,,---,0.00,VWS V14.00,2013-10-23 20:34:00,
2013-10-23 16:39:00,45.4,34.3,29.95,West,273,3.0,3.0,65,0.00,,---,0.00,VWS V14.00,2013-10-23 20:39:00,
2013-10-23 16:44:00,45.4,34.3,29.95,WSW,257,0.0,10.0,65,0.00,,---,0.00,VWS V14.00,2013-10-23 20:44:00,
2013-10-23 16:49:00,45.4,33.6,29.95,WNW,296,8.0,11.0,63,0.00,,---,0.00,VWS V14.00,2013-10-23 20:49:00,
2013-10-23 16:54:00,45.3,33.5,29.95,WSW,242,5.0,11.0,63,0.00,,---,0.00,VWS V14.00,2013-10-23 20:54:00,
2013-10-23 16:59:00,45.2,33.4,29.95,WNW,294,6.0,13.0,63,0.00,,---,0.00,VWS V14.00,2013-10-23 20:59:00,
2013-10-23 17:04:00,45.1,33.7,29.95,NW,306,0.0,13.0,64,0.00,,---,0.00,VWS V14.00,2013-10-23 21:04:00,
2013-10-23 17:09:00,45.2,33.8,29.95,North,5,0.0,7.0,64,0.00,,---,0.00,VWS V14.00,2013-10-23 21:09:00,
2013-10-23 17:14:00,45.5,34.0,29.95,West,263,0.0,7.0,64,0.00,,---,0.00,VWS V14.00,2013-10-23 21:14:00,
2013-10-23 17:19:00,45.9,33.6,29.95,NW,310,4.0,13.0,62,0.00,,---,0.00,VWS V14.00,2013-10-23 21:19:00,
2013-10-23 17:24:00,46.1,33.8,29.95,West,271,4.0,13.0,62,0.00,,---,0.00,VWS V14.00,2013-10-23 21:24:00,
2013-10-23 17:30:00,46.1,33.4,29.95,WSW,243,3.0,13.0,61,0.00,,---,0.00,VWS V14.00,2013-10-23 21:30:00,
2013-10-23 17:35:00,46.0,32.9,29.95,NW,311,4.0,14.0,60,0.00,,---,0.00,VWS V14.00,2013-10-23 21:35:00,
2013-10-23 17:40:00,45.9,33.2,29.95,West,269,0.0,4.0,61,0.00,,---,0.00,VWS V14.00,2013-10-23 21:40:00,
2013-10-23 17:45:00,45.9,33.6,29.96,WNW,294,2.0,6.0,62,0.00,,---,0.00,VWS V14.00,2013-10-23 21:45:00,
2013-10-23 17:50:00,45.8,33.5,29.96,WSW,246,4.0,13.0,62,0.00,,---,0.00,VWS V14.00,2013-10-23 21:50:00,
2013-10-23 17:55:00,45.6,32.9,29.96,West,270,0.0,13.0,61,0.00,,---,0.00,VWS V14.00,2013-10-23 21:55:00,
2013-10-23 18:00:00,45.5,32.8,29.96,West,275,0.0,13.0,61,0.00,,---,0.00,VWS V14.00,2013-10-23 22:00:00,
2013-10-23 18:05:00,45.4,32.8,29.96,SW,236,0.0,13.0,61,0.00,,---,0.00,VWS V14.00,2013-10-23 22:05:00,
2013-10-23 18:10:00,45.4,33.6,29.96,SW,218,0.0,4.0,63,0.00,,---,0.00,VWS V14.00,2013-10-23 22:10:00,
2013-10-23 18:15:00,45.3,33.5,29.96,West,262,0.0,6.0,63,0.00,,---,0.00,VWS V14.00,2013-10-23 22:15:00,
2013-10-23 18:20:00,45.2,33.4,29.96,WSW,253,0.0,6.0,63,0.00,,---,0.00,VWS V14.00,2013-10-23 22:20:00,
2013-10-23 18:25:00,45.0,33.2,29.96,WSW,253,0.0,6.0,63,0.00,,---,0.00,VWS V14.00,2013-10-23 22:25:00,
2013-10-23 18:30:00,45.0,33.6,29.97,WSW,253,0.0,6.0,64,0.00,,---,0.00,VWS V14.00,2013-10-23 22:30:00,
2013-10-23 18:35:00,44.9,33.5,29.96,WSW,253,0.0,6.0,64,0.00,,---,0.00,VWS V14.00,2013-10-23 22:35:00,
2013-10-23 18:40:00,44.9,33.9,29.97,WSW,253,0.0,0.0,65,0.00,,---,0.00,VWS V14.00,2013-10-23 22:40:00,
2013-10-23 18:45:00,44.8,33.8,29.97,WSW,253,0.0,1.0,65,0.00,,---,0.00,VWS V14.00,2013-10-23 22:45:00,
2013-10-23 18:50:00,44.7,33.3,29.98,WSW,253,0.0,3.0,64,0.00,,---,0.00,VWS V14.00,2013-10-23 22:50:00,
2013-10-23 18:55:00,44.5,33.1,29.98,WSW,253,0.0,10.0,64,0.00,,---,0.00,VWS V14.00,2013-10-23 22:55:00,
2013-10-23 19:00:00,44.4,32.6,29.97,SSW,204,3.0,10.0,63,0.00,,---,0.00,VWS V14.00,2013-10-23 23:00:00,
2013-10-23 19:06:00,44.4,32.6,29.98,WSW,239,0.0,10.0,63,0.00,,---,0.00,VWS V14.00,2013-10-23 23:06:00,
2013-10-23 19:11:00,44.3,32.5,29.98,West,263,1.0,7.0,63,0.00,,---,0.00,VWS V14.00,2013-10-23 23:11:00,
2013-10-23 19:16:00,44.2,32.4,29.98,South,187,1.0,7.0,63,0.00,,---,0.00,VWS V14.00,2013-10-23 23:16:00,
2013-10-23 19:21:00,44.2,32.8,29.97,WSW,250,1.0,9.0,64,0.00,,---,0.00,VWS V14.00,2013-10-23 23:21:00,
2013-10-23 19:26:00,44.0,32.6,29.97,WSW,241,0.0,9.0,64,0.00,,---,0.00,VWS V14.00,2013-10-23 23:26:00,
2013-10-23 19:31:00,43.9,32.5,29.98,South,188,0.0,9.0,64,0.00,,---,0.00,VWS V14.00,2013-10-23 23:31:00,
2013-10-23 19:36:00,43.8,32.8,29.98,SSE,152,1.0,9.0,65,0.00,,---,0.00,VWS V14.00,2013-10-23 23:36:00,
2013-10-23 19:41:00,43.7,32.7,29.98,SSE,155,0.0,0.0,65,0.00,,---,0.00,VWS V14.00,2013-10-23 23:41:00,
2013-10-23 19:46:00,43.6,32.6,29.98,SSE,155,1.0,3.0,65,0.00,,---,0.00,VWS V14.00,2013-10-23 23:46:00,
2013-10-23 19:51:00,43.4,32.8,29.98,WSW,246,2.0,4.0,66,0.00,,---,0.00,VWS V14.00,2013-10-23 23:51:00,
2013-10-23 19:56:00,43.3,32.7,29.98,WSW,241,0.0,4.0,66,0.00,,---,0.00,VWS V14.00,2013-10-23 23:56:00,
2013-10-23 20:01:00,43.2,33.0,29.98,WSW,241,0.0,4.0,67,0.00,,---,0.00,VWS V14.00,2013-10-24 00:01:00,
2013-10-23 20:06:00,43.1,33.3,29.98,WSW,241,0.0,4.0,68,0.00,,---,0.00,VWS V14.00,2013-10-24 00:06:00,
2013-10-23 20:11:00,42.8,33.3,29.98,WSW,242,2.0,3.0,69,0.00,,---,0.00,VWS V14.00,2013-10-24 00:11:00,
2013-10-23 20:16:00,42.6,32.8,29.98,WSW,242,0.0,3.0,68,0.00,,---,0.00,VWS V14.00,2013-10-24 00:16:00,
2013-10-23 20:22:00,42.4,33.3,29.99,WSW,241,0.0,3.0,70,0.00,,---,0.00,VWS V14.00,2013-10-24 00:22:00,
2013-10-23 20:27:00,42.1,33.0,29.99,WSW,242,0.0,3.0,70,0.00,,---,0.00,VWS V14.00,2013-10-24 00:27:00,
2013-10-23 20:32:00,41.9,33.2,29.99,WSW,242,0.0,3.0,71,0.00,,---,0.00,VWS V14.00,2013-10-24 00:32:00,
2013-10-23 20:37:00,41.7,33.0,29.99,WSW,242,0.0,3.0,71,0.00,,---,0.00,VWS V14.00,2013-10-24 00:37:00,
2013-10-23 20:42:00,41.5,32.8,30.00,WSW,240,0.0,3.0,71,0.00,,---,0.00,VWS V14.00,2013-10-24 00:42:00,
2013-10-23 20:47:00,41.5,32.5,30.00,SW,232,2.0,3.0,70,0.00,,---,0.00,VWS V14.00,2013-10-24 00:47:00,
2013-10-23 20:52:00,41.5,32.5,30.00,SW,232,0.0,3.0,70,0.00,,---,0.00,VWS V14.00,2013-10-24 00:52:00,
2013-10-23 20:57:00,41.5,32.5,30.01,SW,232,0.0,3.0,70,0.00,,---,0.00,VWS V14.00,2013-10-24 00:57:00,
2013-10-23 21:02:00,41.6,32.6,30.00,SW,222,0.0,3.0,70,0.00,,---,0.00,VWS V14.00,2013-10-24 01:02:00,
2013-10-23 21:07:00,41.6,32.2,30.00,NW,306,0.0,4.0,69,0.00,,---,0.00,VWS V14.00,2013-10-24 01:07:00,
2013-10-23 21:12:00,41.6,31.8,30.00,WNW,298,1.0,3.0,68,0.00,,---,0.00,VWS V14.00,2013-10-24 01:12:00,
2013-10-23 21:17:00,41.6,31.8,30.00,West,275,0.0,3.0,68,0.00,,---,0.00,VWS V14.00,2013-10-24 01:17:00,
2013-10-23 21:22:00,41.5,31.7,30.00,West,275,0.0,3.0,68,0.00,,---,0.00,VWS V14.00,2013-10-24 01:22:00,
2013-10-23 21:27:00,41.5,31.7,30.00,West,275,0.0,3.0,68,0.00,,---,0.00,VWS V14.00,2013-10-24 01:27:00,
2013-10-23 21:32:00,41.4,31.6,30.00,West,275,3.0,3.0,68,0.00,,---,0.00,VWS V14.00,2013-10-24 01:32:00,
2013-10-23 21:38:00,41.3,31.5,30.00,West,275,0.0,3.0,68,0.00,,---,0.00,VWS V14.00,2013-10-24 01:38:00,
2013-10-23 21:43:00,41.3,31.5,30.01,West,275,0.0,0.0,68,0.00,,---,0.00,VWS V14.00,2013-10-24 01:43:00,
2013-10-23 21:48:00,41.2,31.5,30.01,West,275,0.0,0.0,68,0.00,,---,0.00,VWS V14.00,2013-10-24 01:48:00,
2013-10-23 21:53:00,41.2,31.5,30.01,West,275,0.0,1.0,68,0.00,,---,0.00,VWS V14.00,2013-10-24 01:53:00,
2013-10-23 21:58:00,41.1,31.4,30.01,West,275,0.0,1.0,68,0.00,,---,0.00,VWS V14.00,2013-10-24 01:58:00,
2013-10-23 22:03:00,41.1,31.4,30.01,West,275,0.0,1.0,68,0.00,,---,0.00,VWS V14.00,2013-10-24 02:03:00,
2013-10-23 22:08:00,41.1,31.4,30.01,West,275,0.0,0.0,68,0.00,,---,0.00,VWS V14.00,2013-10-24 02:08:00,
2013-10-23 22:13:00,41.1,31.7,30.01,West,275,0.0,3.0,69,0.00,,---,0.00,VWS V14.00,2013-10-24 02:13:00,
2013-10-23 22:18:00,41.1,31.7,30.01,West,275,0.0,3.0,69,0.00,,---,0.00,VWS V14.00,2013-10-24 02:18:00,
2013-10-23 22:23:00,41.1,31.7,30.01,West,275,0.0,3.0,69,0.00,,---,0.00,VWS V14.00,2013-10-24 02:23:00,
2013-10-23 22:28:00,41.1,31.7,30.01,West,275,1.0,3.0,69,0.00,,---,0.00,VWS V14.00,2013-10-24 02:28:00,
2013-10-23 22:33:00,41.1,31.7,30.01,West,275,0.0,3.0,69,0.00,,---,0.00,VWS V14.00,2013-10-24 02:33:00,
2013-10-23 22:39:00,40.9,31.2,30.01,West,275,0.0,0.0,68,0.00,,---,0.00,VWS V14.00,2013-10-24 02:39:00,
2013-10-23 22:44:00,40.8,31.1,30.01,West,275,0.0,3.0,68,0.00,,---,0.00,VWS V14.00,2013-10-24 02:44:00,
2013-10-23 22:49:00,40.9,31.9,30.01,West,275,0.0,3.0,70,0.00,,---,0.00,VWS V14.00,2013-10-24 02:49:00,
2013-10-23 22:54:00,40.8,31.4,30.01,West,275,0.0,3.0,69,0.00,,---,0.00,VWS V14.00,2013-10-24 02:54:00,
2013-10-23 22:59:00,40.7,31.0,30.02,West,275,0.0,3.0,68,0.00,,---,0.00,VWS V14.00,2013-10-24 02:59:00,
2013-10-23 23:04:00,40.7,31.0,30.02,WSW,245,0.0,3.0,68,0.00,,---,0.00,VWS V14.00,2013-10-24 03:04:00,
2013-10-23 23:09:00,40.7,31.0,30.01,WSW,245,0.0,0.0,68,0.00,,---,0.00,VWS V14.00,2013-10-24 03:09:00,
2013-10-23 23:14:00,40.6,30.9,30.02,WSW,245,1.0,3.0,68,0.00,,---,0.00,VWS V14.00,2013-10-24 03:14:00,
2013-10-23 23:19:00,40.6,31.2,30.02,WSW,244,0.0,3.0,69,0.00,,---,0.00,VWS V14.00,2013-10-24 03:19:00,
2013-10-23 23:24:00,40.5,30.8,30.02,SW,224,0.0,4.0,68,0.00,,---,0.00,VWS V14.00,2013-10-24 03:24:00,
2013-10-23 23:29:00,40.5,31.1,30.02,SW,223,0.0,4.0,69,0.00,,---,0.00,VWS V14.00,2013-10-24 03:29:00,
2013-10-23 23:34:00,40.4,30.7,30.02,SW,224,0.0,4.0,68,0.00,,---,0.00,VWS V14.00,2013-10-24 03:34:00,
2013-10-23 23:39:00,40.4,31.0,30.02,SW,223,0.0,0.0,69,0.00,,---,0.00,VWS V14.00,2013-10-24 03:39:00,
2013-10-23 23:44:00,40.4,31.0,30.02,SW,224,0.0,2.0,69,0.00,,---,0.00,VWS V14.00,2013-10-24 03:44:00,
2013-10-23 23:49:00,40.3,31.0,30.02,SW,224,0.0,2.0,69,0.00,,---,0.00,VWS V14.00,2013-10-24 03:49:00,
2013-10-23 23:54:00,40.3,31.3,30.02,SW,224,0.0,2.0,70,0.00,,---,0.00,VWS V14.00,2013-10-24 03:54:00,
2013-10-23 23:59:00,40.3,31.0,30.02,SW,223,1.0,3.0,69,0.00,,---,0.00,VWS V14.00,2013-10-24 03:59:00,